COSMOS 1275 DEB

Satellite information

Favourite Embed

Satellite Type and Status

DEBRISIN ORBIT

Key statistics

Satellite COSMOS 1275 DEB at a glance.

Uptime

16165

Days in orbit

Revolutions

≈ 14.8

Per day

Orbit

LEO

Low Earth Orbit

Inclination

83.0

Latest

Satellite identification and parameters

Extended collection of information and parameters for COSMOS 1275 DEB.

Object identification

Identified? True

Debris? True

Object name: COSMOS 1275 DEB

International designator: 1981-053GB

Object number (NORAD): 13481

Object ID (CCSDS): 13481

Country: COMMONWEALTH OF INDEPENDENT STATES (CIS)

Current information (Y/N): Y

RCS size: SMALL

Orbital parameters

Period: 97.005 minutes

Inclination: 82.9744 deg

SMA: 6993.405 km

Apoapsis: 625.91 km

Periapsis: 604.63 km

RAAN: 260.9995 deg

Eccentricy: 0.00152141

Argument of periapsis: 224.4097 deg

Mean anomaly: 135.5901 deg

Mean motion: 14.84464265 rev/day

Mean motion (dot): 0.00039962 rev/day2

B* drag term: 0.0047132407 1/REarth

Two-line elements (TLE)

Creation date: Sept. 6, 2025, 2:09 a.m.

Reference frame: TEME

Reference center: EARTH

Epoch: Sept. 5, 2025, 5:49 p.m. UTC

TLE line 0: 0 COSMOS 1275 DEB

TLE line 1: 1 13481U 81053GB 25248.74282898 .00039962 00000-0 47132-2 0 9991

TLE line 2: 2 13481 82.9744 260.9995 0015214 224.4097 135.5901 14.84464265224910

Live tracking on map

Real-time ground track for satellite COSMOS 1275 DEB.

In-orbit conjunctions

A list of the most updated potential collisions computed for object COSMOS 1275 DEB.

Target Orbit TCA Probability of collision Miss distance Type
CZ-6A DEB LEO 2024-12-07 14:28:57 0.0002150821 428.0 (m) DEBRIS
NOAA 17 DEB SSO 2024-06-16 10:12:47 0.000487514 18.0 (m) DEBRIS

Associated space launch

Navigation satellite providing location information for the Tsiklon-B navigation system

COSMOS 1275 DEB was lifted into orbit during the mission ‘Kosmos-3M | Parus 27’, on board a Kosmos-3M space rocket.

The launch took place on June 4, 1981, 3:41 p.m. from 132/2.

For more information about the launch, click the button.

Launch to space Kosmos-3M | Parus 27
Kosmos-3M | Parus 27

Agency: N/A

Status: Launch Successful

Launch date: June 4, 1981, 3:41 p.m. UTC

Rocket: Kosmos-3M

Launch pad: 132/2

Location: Plesetsk Cosmodrome, Russian Federation

...

Latest news about this satellite

There are no fresh news available about this satellite. Check back as we update our databases every day.


Newsletter sign-up

Weekly statistics, charts and insights to help you stay on top of the space industry.